{"data":{"norad_id":42990,"epoch":"2026-09-20T03:13:47.656704Z","epoch_age_seconds":45971,"freshness":"FRESH","line1":"1 42990U 17068D   26263.13457936  .00007815  00000+0  20708-3 0  9993","line2":"2 42990  97.4648  41.2621 0001511  88.7696 271.3722 15.38629904496901","mean_motion":15.38629904,"eccentricity":0.0001511,"inclination_deg":97.4648,"raan_deg":41.2621,"arg_perigee_deg":88.7696,"mean_anomaly_deg":271.3722,"bstar":0.00020708,"rev_number":49690,"period_min":93.589757761526,"perigee_km":449.12812942368,"apogee_km":451.19164074235,"semimajor_km":6828.296885083,"source":"CELESTRAK","updated_at":"2026-09-20T09:00:34.708801Z"}}